Henderson, NV

8:52 AM PDT on April 23, 2017 (GMT -0700)
Henderson

Weather History for KHND - October, 2012

Change the Weather History Date:

Tuesday, October 16, 2012

  Actual Average (KLAS) Record (KLAS)
Temperature  
Mean Temperature 70 °F -  
Max Temperature 86 °F 79 °F 96 °F (1991)
Min Temperature 55 °F 52 °F 42 °F (1984)
Cooling Degree Days 6    
Growing Degree Days 20 (Base 50)    
Moisture  
Dew Point 42 °F    
Average Humidity 36    
Maximum Humidity 69    
Minimum Humidity 17    
Precipitation  
Precipitation 0.00 in - - ()
Sea Level Pressure  
Sea Level Pressure 29.78 in    
Wind  
Wind Speed 8 mph (SSW)    
Max Wind Speed 13 mph    
Max Gust Speed -    
Visibility 10 miles    
Events      
Averages and records for this station are not official NWS values.
T = Trace of Precipitation, MM = Missing Value Source: NWS Daily Summary

Daily Weather History Graph

Daily Weather History Graph

Search for Another Location

Airport or City:

Trip Planner

Search our weather history database for the weather conditions in past years. The results will help you decide how hot, cold, wet, or windy it might be!

Date:

Astronomy

Oct. 16, 2012 Rise Set
Actual Time 6:48 AM PDT 6:02 PM PDT
Civil Twilight 6:22 AM PDT 6:28 PM PDT
Nautical Twilight 5:53 AM PDT 6:58 PM PDT
Astronomical Twilight 5:23 AM PDT 7:27 PM PDT
Moon 8:12 AM PDT (10/16) 6:55 PM PDT (10/16)
Length of Visible Light 12h 05m
Length of Day
11h 14m
New Moon, 2% of the Moon is Illuminated
Oct 16
New Moon
Oct 21
First Quarter
Oct 29
Full
Nov 6
Last Quarter
Nov 13
New

Hourly Weather History & Observations

Time (PDT) Temp. Dew Point Humidity Pressure Visibility Wind Dir Wind Speed Gust Speed Precip Events Conditions
12:56 AM 63.9 °F 45.9 °F 52% 29.85 in 10.0 mi SSW 9.2 mph - N/A   Clear
1:56 AM 63.9 °F 45.9 °F 52% 29.85 in 10.0 mi SW 11.5 mph - N/A   Clear
4:56 AM 59.9 °F 45.9 °F 60% 29.84 in 10.0 mi SSE 8.1 mph - N/A   Clear
5:56 AM 59.0 °F 45.9 °F 62% 29.85 in 10.0 mi South 10.4 mph - N/A   Clear
6:56 AM 55.9 °F 45.9 °F 69% 29.86 in 10.0 mi SSW 8.1 mph - N/A   Clear
7:56 AM 59.9 °F 46.9 °F 62% 29.88 in 10.0 mi SSE 8.1 mph - N/A   Clear
9:56 AM 72.9 °F 43.0 °F 34% 29.88 in 10.0 mi WSW 5.8 mph - N/A   Clear
10:56 AM 75.9 °F 39.9 °F 27% 29.87 in 10.0 mi Calm Calm - N/A   Clear
11:56 AM 79.9 °F 41.9 °F 26% 29.85 in 10.0 mi North 4.6 mph - N/A   Clear
12:56 PM 81.9 °F 38.8 °F 22% 29.80 in 10.0 mi Variable 3.5 mph - N/A   Clear
1:56 PM 86.0 °F 39.9 °F 20% 29.75 in 10.0 mi Variable 4.6 mph - N/A   Clear
2:56 PM 86.9 °F 39.9 °F 19% 29.72 in 10.0 mi NNE 3.5 mph - N/A   Clear
3:56 PM 86.9 °F 41.0 °F 20% 29.70 in 10.0 mi NE 5.8 mph - N/A   Clear
4:56 PM 86.9 °F 36.9 °F 17% 29.68 in 10.0 mi SSW 12.7 mph - N/A   Clear
5:56 PM 82.9 °F 37.9 °F 20% 29.68 in 10.0 mi SSW 9.2 mph - N/A   Clear
6:56 PM 79.0 °F 37.9 °F 23% 29.70 in 10.0 mi SSW 11.5 mph - N/A   Clear
7:56 PM 73.9 °F 39.9 °F 29% 29.72 in 10.0 mi South 8.1 mph - N/A   Clear
8:56 PM 70.9 °F 41.0 °F 34% 29.72 in 10.0 mi South 6.9 mph - N/A   Clear
9:56 PM 70.9 °F 39.9 °F 32% 29.74 in 10.0 mi SW 10.4 mph - N/A   Clear
10:56 PM 70.9 °F 39.9 °F 32% 29.73 in 10.0 mi SSW 11.5 mph - N/A   Clear
11:56 PM 70.0 °F 41.0 °F 35% 29.74 in 10.0 mi SSW 12.7 mph - N/A   Clear